{"data":{"norad_id":59273,"intl_designator":"2024-050V","name":"STARLINK-31595","alt_names":[],"object_type":"PAYLOAD","status":"ACTIVE","operator":null,"country":"US","launch_date":"2024-03-19","launch_site_code":"AFWTR","launch_vehicle":null,"mission":null,"orbit_class":"UNKNOWN","rcs_meters":null,"size_class":null,"mass_kg":null,"dimensions":null,"purposes":["comms"],"wikipedia_slug":null,"has_3d_model":false,"image_url":null,"decayed_at":null,"tle_current":{"epoch":"2026-05-25T03:19:11.852832Z","epoch_age_seconds":70076,"freshness":"FRESH","line1":"1 59273U 24050V   26145.13833163  .00000395  00000+0  25463-4 0  9993","line2":"2 59273  53.1597 185.8806 0000992  85.1659 274.9455 15.30197770122256","mean_motion":15.3019777,"eccentricity":9.92e-5,"inclination_deg":53.1597,"raan_deg":185.8806,"arg_perigee_deg":85.1659,"mean_anomaly_deg":274.9455,"bstar":2.5463e-5,"rev_number":12225,"period_min":94.105482848795,"perigee_km":474.54187461965,"apogee_km":475.90158099125,"semimajor_km":6853.3587278055,"source":"CELESTRAK","updated_at":"2026-05-25T13:38:18.895886Z"}}}